Regional Weather Roundup
Issued by NWS

Home | Current Version | Previous Version | Graphics & Text | Print | Product List | Glossary On
Versions: 1 2 3 4 5 6 7 8 9 10 11 12 13 14 15 16 17 18 19 20 21 22 23 24 25 26 27 28 29 30 31 32 33 34 35 36 37 38 39 40 41 42 43 44 45 46 47 48 49 50
580
ASUS43 KMPX 270910
RWRMN
WEATHER ROUNDUP FOR MINNESOTA
NATIONAL WEATHER SERVICE TWIN CITIES/CHANHASSEN MN
400 AM CDT SAT MAY 27 2017


NOTE: "FAIR" INDICATES FEW OR NO CLOUDS BELOW 12,000 FEET WITH NO
SIGNIFICANT WEATHER AND/OR OBSTRUCTIONS TO VISIBILITY. N/A MEANS
CURRENT SKY AND/OR WEATHER CONDITIONS ARE NOT AVAILABLE.

MNZ060>063-068>070-271000-
   Twin Cities Metro

CITY           SKY/WX    TMP DP  RH WIND       PRES   REMARKS
TWIN CITIES    CLEAR     58  47  66 SW5       29.87R
ST PAUL        CLEAR     53  51  93 CALM      29.87R
CRYSTAL        CLEAR     52  45  77 CALM      29.85R
BLAINE         CLEAR     52  48  87 CALM      29.86R
LAKEVILLE      CLEAR     50  48  93 CALM      29.88R
EDEN PRAIRIE   CLEAR     56  47  71 W3        29.86R
SOUTH ST PAUL  CLEAR     54  48  78 CALM      29.86R
LAKE ELMO      FAIR      50  50 100 CALM      29.87R
$$
MNZ001>005-007-008-013>017-022>024-027-028-271000-
   Northwest Minnesota

CITY           SKY/WX    TMP DP  RH WIND       PRES   REMARKS
BEMIDJI        CLOUDY    48  43  83 SW3       29.81S
HALLOCK        CLOUDY    45  39  81 S3        29.74S
ROSEAU         CLEAR     48  43  81 SW6       29.76S
WARROAD        PTCLDY    48  45  87 SW6       29.76F
THIEF RVR FALL PTCLDY    47  41  80 SW6       29.80S
CROOKSTON      CLOUDY    48  43  81 S7        29.80R
FOSSTON        PTCLDY    45  39  81 S6        29.82S
DETROIT LAKES  CLOUDY    52  45  76 CALM      29.85R
MOORHEAD       CLOUDY    52  43  71 SW5       29.84S
PARK RAPIDS    CLOUDY    48  41  76 CALM      29.83S
MAHNOMEN       FAIR      46  42  84 S8        29.83R
$$
MNZ006-009>011-018-025>026-271000-
   North Central Minnesota

CITY           SKY/WX    TMP DP  RH WIND       PRES   REMARKS
BAUDETTE       CLEAR     46  42  86 S3        29.77R
FLAG ISLAND    CLEAR     52  45  76 SW14      29.73R
INTL FALLS     CLEAR     49  42  77 SW5       29.77R
WASKISH        CLEAR     48  45  87 SW3       29.79S
BIG FORK       CLEAR     43  39  87 CALM      29.80R
LONGVILLE      MOCLDY    46  45  93 CALM      29.83R
GRAND RAPIDS   PTCLDY    53  44  71 W3        29.83R
CRANE LAKE     CLEAR     41  39  93 CALM      29.80S
ORR            CLEAR     52  41  66 CALM      29.77R
COOK           CLEAR     41  39  93 CALM      29.80S
WALKER         FAIR      47  42  84 CALM      29.82S
$$
MNZ012-019>021-037-271000-
   Northeast Minnesota

CITY           SKY/WX    TMP DP  RH WIND       PRES   REMARKS
DULUTH         CLEAR     52  46  80 NW7       29.80F
ELY            CLEAR     46  46 100 CALM      29.80S
HIBBING        CLOUDY    39  39 100 CALM      29.80S
EVELETH        CLOUDY    42  41  93 CALM      29.82S FOG
DULUTH HARBOR  CLEAR     48  46  93 S7        29.81R
TWO HARBORS    CLEAR     52  45  76 CALM      29.77F
SILVER BAY     CLEAR     45  45 100 CALM      29.77F FOG
GRAND MARAIS     N/A     45  44  97 CALM      29.79R
G MARAIS ARPRT MOCLDY    45  43  93 CALM      29.80R FOG
$$
MNZ029>031-032-039>041-046>048-054>057-064-271000-
   West Central Minnesota

CITY           SKY/WX    TMP DP  RH WIND       PRES   REMARKS
FERGUS FALLS   CLOUDY    52  45  76 S5        29.85S
WHEATON        CLOUDY    52  45  76 SW5       29.89R
MORRIS         CLOUDY    52  46  82 SW6       29.87S
ALEXANDRIA     CLOUDY    50  45  83 SW8       29.89R
ELBOW LAKE     FAIR      48  45  88 CALM      29.87R
WADENA         PTCLDY    48  43  81 SW6       29.85R
GLENWOOD       CLEAR     48  45  87 SW6       29.89R
APPLETON       CLOUDY    52  46  82 SW5       29.88S
BENSON         PTCLDY    48  45  87 W3        29.90R
ORTONVILLE     CLOUDY    52  45  76 SW6       29.88F
MADISON        CLOUDY    54  46  76 CALM      29.89S
WILLMAR        FAIR      50  46  87 CALM      29.90S
$$
MNZ033>034-036-042>043-049>051-058-059-271000-
   Central Minnesota

CITY           SKY/WX    TMP DP  RH WIND       PRES   REMARKS
ST CLOUD       CLEAR     48  46  93 CALM      29.86R
SAUK CENTRE    FAIR      47  43  86 CALM      29.88R
PAYNESVILLE    PTCLDY    46  46 100 W5        29.89R
AITKIN         CLEAR     45  43  93 CALM      29.82S
PINE RIVER     CLOUDY    46  45  93 CALM      29.87S
BRAINERD       PTCLDY    45  44  97 S5        29.84S
STAPLES        MOCLDY    48  43  81 SW3       29.85R
LONG PRAIRIE   FAIR      46  45  93 CALM      29.87S
LITTLE FALLS   CLEAR     45  43  93 CALM      29.86R
LITCHFIELD     CLEAR     55  48  76 SW3       29.89R
BUFFALO        CLEAR     54  46  75 CALM      29.88R
MAPLE LAKE     CLEAR     51  47  85 W3        29.88R
HUTCHINSON     CLOUDY    52  48  84 CALM      29.89S
$$
MNZ037-044-045-052-053-271000-
   East Central Minnesota

CITY           SKY/WX    TMP DP  RH WIND       PRES   REMARKS
PRINCETON      CLEAR     46  45  93 CALM      29.86S FOG
MORA           CLEAR     46  45  93 CALM      29.86S
CAMBRIDGE      CLEAR     50  43  76 CALM      29.84R
RUSH CITY      MOCLDY    48  45  90 CALM      29.85S
MOOSE LAKE     CLEAR     45  43  93 CALM      29.81S
HINCKLEY       FAIR      48  46  93 CALM      29.84R
CLOQUET        CLEAR     46  43  87 W5        29.82R
MCGREGOR       CLEAR     46  45  93 CALM      29.84R
$$
MNZ071>073-080-081-089-090-097-098-271000-
   Southwest Minnesota

CITY           SKY/WX    TMP DP  RH WIND       PRES   REMARKS
MONTEVIDEO     CLOUDY    54  45  71 W3        29.89S
CANBY          CLOUDY    54  48  81 CALM      29.90S
MARSHALL       CLOUDY    53  48  83 CALM      29.90S
REDWOOD FALLS  CLOUDY    54  45  71 CALM      29.88F
OLIVIA         CLOUDY    52  45  76 SW3       29.88F
PIPESTONE      CLOUDY    55  41  58 CALM      29.90S
WINDOM         CLEAR     52  45  76 CALM      29.90F
WORTHINGTON    PTCLDY    51  43  74 CALM      29.91F
JACKSON        CLEAR     52  43  71 CALM      29.91S
TRACY          CLOUDY    56  48  75 SW5       29.90S
SLAYTON        MOCLDY    52  44  76 CALM      29.92S
$$
MNZ065>067-074>077-082>085-091>093-271000-
   South Central Minnesota

CITY           SKY/WX    TMP DP  RH WIND       PRES   REMARKS
MANKATO        PTCLDY    55  47  74 W5        29.90R
NEW ULM        PTCLDY    52  45  76 CALM      29.88F
ST JAMES       CLEAR     52  46  82 CALM      29.90F
FAIRMONT       CLEAR     54  46  74 NW5       29.90F
GLENCOE        CLEAR     55  50  85 CALM      29.88R
FARIBAULT      CLEAR     52  48  87 CALM      29.90R
OWATONNA       CLEAR     50  46  87 CALM      29.89S
WASECA         CLEAR     52  46  82 CALM      29.91R
ALBERT LEA     CLEAR     54  52  94 CALM      29.90R
$$
MNZ078>079-086>088-094>096-271000-
   Southeast Minnesota

CITY           SKY/WX    TMP DP  RH WIND       PRES   REMARKS
ROCHESTER      CLEAR     54  49  83 W8        29.89R
RED WING       CLEAR     54  50  87 W3        29.86R
STANTON        CLEAR     51  48  90 CALM      29.87R
DODGE CENTER   CLEAR     55  46  71 W8        29.89R
WINONA         CLEAR     59  55  88 CALM      29.86S
AUSTIN         FOG       52  50  93 CALM      29.89R VSB 1/4
PRESTON        CLEAR     56  54  94 SW6       29.88S
$$
ABBREVIATIONS USED IN REMARKS
   TC - TEMPERATURES IN CELSIUS
  WCI - WIND CHILL INDEX
   HX - HEAT INDEX
  VSB - VISIBILITY
$$




USA.gov is the U.S. government's official web portal to all federal, state and local government web resources and services.